Regional Weather Roundup
Issued by NWS

Home | Current Version | Previous Version | Graphics & Text | Print | Product List | Glossary On
Versions: 1 2 3 4 5 6 7 8 9 10 11 12 13 14 15 16 17 18 19 20 21 22 23 24 25 26 27 28 29 30 31 32 33 34 35 36 37 38 39 40 41 42 43 44 45 46 47 48 49 50
000
ASUS43 KDMX 030706
RWRIA

WEATHER ROUNDUP FOR IOWA
NATIONAL WEATHER SERVICE DES MOINES IA
100 AM CST SAT DEC 03 2016

NOTE: "FAIR" INDICATES FEW OR NO CLOUDS BELOW 12,000 FEET WITH NO
SIGNIFICANT WEATHER AND/OR OBSTRUCTIONS TO VISIBILITY.

* - THESE STATIONS ARE NOT NWS STATIONS...THUS NOT UNDER NWS
QUALITY CONTROL.  THEY ALSO DO NOT REPORT WEATHER SUCH
AS PRECIPITATION OR FOG.

IAZ001>003-012>014-020>022-031>034-043>046-030800-
   NORTHWEST IOWA

CITY           SKY/WX    TMP DP  RH WIND       PRES   REMARKS
CARROLL *      CLOUDY    34  34 100 CALM      30.32S
CHEROKEE *     CLOUDY    32  30  93 S5        30.31S WCI  27
DENISON *      CLOUDY    34  28  80 N3        30.30S
LE MARS *      CLOUDY    30  28  93 CALM      30.33R
ORANGE CITY *  CLOUDY    30  28  93 CALM      30.30S
SHELDON *      CLOUDY    30  28  93 CALM      30.28S
SIOUX CITY     CLEAR     27  24  89 CALM      30.33S FOG
SPENCER        CLOUDY    31  27  85 MISG      30.30S
STORM LAKE *   CLOUDY    32  28  86 NW5       30.31S WCI  27
$$

IAZ055>058-069>071-079>083-090>094-030800-
   SOUTHWEST IOWA

CITY           SKY/WX    TMP DP  RH WIND       PRES   REMARKS
ATLANTIC *     CLOUDY    36  32  87 SW5       30.35R WCI  32
AUDUBON *      CLOUDY    36  30  80 CALM      30.33S
CLARINDA *       N/A     25  25 100 CALM      30.40R
COUNCIL BLFS * CLOUDY    28  28 100 SW7       30.36R WCI  21
CRESTON *      CLOUDY    32  30  93 S3        30.36R
HARLAN  *      CLOUDY    34  32  93 SW5       30.37R WCI  30
RED OAK *      PTCLDY    25  25 100 CALM      30.37S
SHENANDOAH *   CLEAR     27  25  93 CALM      30.39R
$$

IAZ047>049-059>061-072>074-084-030800-
   CENTRAL IOWA

CITY           SKY/WX    TMP DP  RH WIND       PRES   REMARKS
ANKENY *       CLOUDY    34  32  93 CALM      30.36R
BOONE *        CLOUDY    32  28  86 CALM      30.32S
CHARITON *       N/A     30  28  93 S6        30.36R WCI  24
DES MOINES     CLOUDY    36  30  79 S3        30.36R
GRINNELL*      CLOUDY    32  29  90 CALM      30.34R
KNOXVILLE *    CLOUDY    34  30  86 S5        30.35R WCI  30
MARSHALLTOWN   CLOUDY    32  28  85 CALM      30.32F
NEWTON *       CLOUDY    32  30  93 CALM      30.34R
PELLA *        CLOUDY    34  30  86 CALM      30.37R
PERRY *        CLOUDY    35  34  98 CALM      30.34R
$$

IAZ004>006-015-016-023>025-035-036-030800-
   NORTH CENTRAL IOWA

CITY           SKY/WX    TMP DP  RH WIND       PRES   REMARKS
ALGONA *       CLOUDY    32  27  80 CALM      30.30F
CLARION *      CLOUDY    32  30  93 S5        30.31F WCI  27
ESTHERVILLE    CLOUDY    29  24  82 NW8       30.29F WCI  21
FORT DODGE *   CLOUDY    32  27  80 SW5       30.32S WCI  27
FOREST CITY *  CLOUDY    30  27  86 NW5       30.31S WCI  25
WEBSTER CITY * CLOUDY    32  32 100 S6        30.30S WCI  26
IOWA FALLS *   CLOUDY    32  27  81 CALM      30.33S
$$

IAZ007>011-017>019-026>030-037>042-050>054-066-030800-
   NORTHEAST IOWA

CITY           SKY/WX    TMP DP  RH WIND       PRES   REMARKS
CEDAR RAPIDS   CLOUDY    31  28  89 W7        30.33R WCI  24
CHARLES CITY * CLOUDY    30  25  80 NW5       30.31F WCI  25
DECORAH *      CLOUDY    28  23  80 NW6G12    30.30S WCI  22
DUBUQUE        CLOUDY    30  23  75 NW6       30.31F WCI  24
MONTICELLO *   CLOUDY    32  23  69 NW12      30.32F WCI  23
OELWEIN *      CLOUDY    30  27  86 NW9       30.32S WCI  22
WATERLOO       CLOUDY    31  23  72 NW6       30.33S WCI  25
$$

IAZ064-065-067-068-078-030800-
   EAST CENTRAL IOWA

CITY           SKY/WX    TMP DP  RH WIND       PRES   REMARKS
DAVENPORT      CLOUDY    32  25  75 NW10      30.34S WCI  24
IOWA CITY      CLOUDY    31  27  85 W5        30.37R WCI  26
MUSCATINE *    CLOUDY    32  28  86 CALM      30.37R
QUAD CITIES    CLOUDY    34  25  69 W5        30.34R WCI  30
$$

IAZ062-063-075>077-085>089-095>099-030800-
   SOUTHEAST IOWA

CITY           SKY/WX    TMP DP  RH WIND       PRES   REMARKS
FAIRFIELD *    CLOUDY    32  28  86 CALM      30.36R
FORT MADISON * CLOUDY    36  30  80 CALM      30.38R
KEOKUK *       PTCLDY    30  28  93 CALM      30.37R
OSKALOOSA *    CLOUDY    32  30  90 S3        30.37R
CENTERVILLE *  CLOUDY    30  28  93 CALM      30.38R
WASHINGTON *   CLOUDY    30  28  93 CALM      30.36S
$$

ABBREVIATIONS USED IN REMARKS
   TC - TEMPERATURES IN CELSIUS
  WCI - WIND CHILL INDEX
   HX - HEAT INDEX
  VSB - VISIBILITY
$$





USA.gov is the U.S. government's official web portal to all federal, state and local government web resources and services.